Fort Atkinson, Wisconsin, United States (53538)
Lat: 42.93N, Lon: 88.84W
Wx Zone: WIZ064
Local Info
Past Weather Observations for Today

NOTE: This archive is for the closest National Weather Service station to Fort Atkinson. Information may differ from the station used for current weather conditions.

Click here for Long-term Archive

Time Weather Temperature Dewpoint Humidity Pressure Winds Precip Visibility
23:15
Overcast
Light Snow
27°F / -3°C 25°F / -4°C 93% 30.18 in
(1022 mb)
NE 6.9 mph
(NE 11 kph)
- 1 1/2SM
22:55
Overcast
Light Snow
27°F / -3°C 25°F / -4°C 93% 30.18 in
(1022 mb)
ENE 8.1 mph
(ENE 13 kph)
0.01 in
(0.25 mm)
1 3/4SM
22:35
Overcast
Light Snow
27°F / -3°C 25°F / -4°C 93% 30.18 in
(1022 mb)
ENE 6.9 mph
(ENE 11 kph)
- 1 3/4SM
22:15
Overcast
Light Snow
27°F / -3°C 25°F / -4°C 93% 30.18 in
(1022 mb)
ENE 9.2 mph
(ENE 15 kph)
- 1 1/2SM
21:55
Overcast
Light Snow
27°F / -3°C 25°F / -4°C 93% 30.15 in
(1021 mb)
ENE 6.9 mph
(ENE 11 kph)
- 1 1/2SM
21:35
Overcast
Light Snow
27°F / -3°C 25°F / -4°C 93% 30.15 in
(1021 mb)
E 10.4 mph
(E 17 kph)
- 2SM
21:15
Overcast
Unknown Precip
27°F / -3°C 25°F / -4°C 93% 30.15 in
(1021 mb)
ENE 10.4 mph
(ENE 17 kph)
- 3SM
20:55
Overcast
Light Snow
28°F / -2°C 23°F / -5°C 80% 30.15 in
(1021 mb)
E 10.4 mph
(E 17 kph)
- 3SM
20:35
Overcast
28°F / -2°C 23°F / -5°C 80% 30.15 in
(1021 mb)
ENE 12.7 mph
(ENE 20 kph)
- 10SM
20:15
Overcast
28°F / -2°C 23°F / -5°C 80% 30.15 in
(1021 mb)
ENE 8.1 mph
(ENE 13 kph)
- 10SM
19:55
Overcast
28°F / -2°C 23°F / -5°C 80% 30.15 in
(1021 mb)
NE 6.9 mph
(NE 11 kph)
- 10SM
19:35
Overcast
28°F / -2°C 23°F / -5°C 80% 30.18 in
(1022 mb)
NE 8.1 mph
(NE 13 kph)
- 10SM
19:15
Overcast
28°F / -2°C 23°F / -5°C 80% 30.18 in
(1022 mb)
NE 5.8 mph
(NE 9 kph)
- 10SM
18:55
Overcast
30°F / -1°C 23°F / -5°C 75% 30.18 in
(1022 mb)
N 8.1 mph
(N 13 kph)
- 10SM
18:35
Overcast
30°F / -1°C 23°F / -5°C 75% 30.15 in
(1021 mb)
NNE 6.9 mph
(NNE 11 kph)
- 10SM
18:15
Overcast
30°F / -1°C 23°F / -5°C 75% 30.15 in
(1021 mb)
NNE 4.6 mph
(NNE 7 kph)
- 10SM
17:35
Overcast
30°F / -1°C 23°F / -5°C 75% 30.15 in
(1021 mb)
N 3.5 mph
(N 6 kph)
- 10SM
17:15
Overcast
32°F / 0°C 23°F / -5°C 69% 30.15 in
(1021 mb)
NE 3.5 mph
(NE 6 kph)
- 10SM
16:55
Overcast
32°F / 0°C 23°F / -5°C 69% 30.15 in
(1021 mb)
Calm - 10SM
16:35
Overcast
32°F / 0°C 23°F / -5°C 69% 30.15 in
(1021 mb)
Calm - 10SM
16:15
Overcast
32°F / 0°C 23°F / -5°C 69% 30.15 in
(1021 mb)
Calm - 10SM
15:55
Overcast
32°F / 0°C 23°F / -5°C 69% 30.15 in
(1021 mb)
Calm - 10SM
15:35
Overcast
32°F / 0°C 23°F / -5°C 69% 30.15 in
(1021 mb)
Calm - 10SM
15:15
Overcast
32°F / 0°C 23°F / -5°C 69% 30.15 in
(1021 mb)
Calm - 10SM
14:55
Overcast
32°F / 0°C 23°F / -5°C 69% 30.15 in
(1021 mb)
ENE 3.5 mph
(ENE 6 kph)
- 10SM
14:35
Overcast
32°F / 0°C 23°F / -5°C 69% 30.15 in
(1021 mb)
Calm - 10SM
14:15
Overcast
32°F / 0°C 23°F / -5°C 69% 30.15 in
(1021 mb)
Calm - 10SM
13:55
Overcast
32°F / 0°C 21°F / -6°C 64% 30.15 in
(1021 mb)
Calm - 10SM
13:35
Overcast
32°F / 0°C 23°F / -5°C 69% 30.15 in
(1021 mb)
Calm - 10SM
13:15
Overcast
32°F / 0°C 21°F / -6°C 64% 30.15 in
(1021 mb)
Calm - 10SM
12:55
Overcast
32°F / 0°C 21°F / -6°C 64% 30.15 in
(1021 mb)
N 4.6 mph
(N 7 kph)
- 10SM
12:35
Overcast
32°F / 0°C 21°F / -6°C 64% 30.15 in
(1021 mb)
NNW 3.5 mph
(NNW 6 kph)
- 10SM
12:15
Overcast
32°F / 0°C 21°F / -6°C 64% 30.15 in
(1021 mb)
WNW 3.5 mph
(WNW 6 kph)
- 10SM
11:55
Mostly Cloudy
32°F / 0°C 21°F / -6°C 64% 30.15 in
(1021 mb)
W 5.8 mph
(W 9 kph)
- 10SM
11:35
Clear
32°F / 0°C 21°F / -6°C 64% 30.18 in
(1022 mb)
W 5.8 mph
(W 9 kph)
- 10SM
11:15
Clear
30°F / -1°C 21°F / -6°C 69% 30.15 in
(1021 mb)
W 4.6 mph
(W 7 kph)
- 10SM
10:55
Clear
30°F / -1°C 19°F / -7°C 64% 30.18 in
(1022 mb)
W 6.9 mph
(W 11 kph)
- 10SM
10:35
Clear
30°F / -1°C 19°F / -7°C 64% 30.18 in
(1022 mb)
SSW 5.8 mph
(SSW 9 kph)
- 10SM
10:15
Clear
28°F / -2°C 19°F / -7°C 69% 30.18 in
(1022 mb)
SSW 4.6 mph
(SSW 7 kph)
- 10SM
09:55
Clear
28°F / -2°C 19°F / -7°C 69% 30.18 in
(1022 mb)
SSW 5.8 mph
(SSW 9 kph)
- 10SM
09:35
Clear
27°F / -3°C 19°F / -7°C 74% 30.18 in
(1022 mb)
SW 5.8 mph
(SW 9 kph)
- 10SM
09:15
Clear
27°F / -3°C 19°F / -7°C 74% 30.18 in
(1022 mb)
SSW 4.6 mph
(SSW 7 kph)
- 10SM
08:55
Clear
25°F / -4°C 19°F / -7°C 80% 30.18 in
(1022 mb)
SW 6.9 mph
(SW 11 kph)
- 10SM
08:35
Clear
25°F / -4°C 19°F / -7°C 80% 30.18 in
(1022 mb)
SW 6.9 mph
(SW 11 kph)
- 10SM
08:15
Clear
23°F / -5°C 18°F / -8°C 80% 30.18 in
(1022 mb)
SW 6.9 mph
(SW 11 kph)
- 10SM
07:55
Clear
23°F / -5°C 18°F / -8°C 80% 30.18 in
(1022 mb)
SW 4.6 mph
(SW 7 kph)
- 10SM
07:35
Clear
21°F / -6°C 18°F / -8°C 86% 30.18 in
(1022 mb)
SW 4.6 mph
(SW 7 kph)
- 10SM
07:15
Clear
21°F / -6°C 18°F / -8°C 86% 30.18 in
(1022 mb)
SW 4.6 mph
(SW 7 kph)
- 10SM
06:55
Clear
21°F / -6°C 18°F / -8°C 86% 30.18 in
(1022 mb)
SW 4.6 mph
(SW 7 kph)
- 10SM
06:35
Partly Cloudy
21°F / -6°C 18°F / -8°C 86% 30.18 in
(1022 mb)
SW 4.6 mph
(SW 7 kph)
- 10SM
06:15
Overcast
23°F / -5°C 19°F / -7°C 86% 30.15 in
(1021 mb)
SW 4.6 mph
(SW 7 kph)
- 10SM
05:55
Overcast
23°F / -5°C 19°F / -7°C 86% 30.15 in
(1021 mb)
SSE 4.6 mph
(SSE 7 kph)
- 10SM
05:35
Overcast
23°F / -5°C 19°F / -7°C 86% 30.18 in
(1022 mb)
SSE 4.6 mph
(SSE 7 kph)
- 10SM
05:15
Overcast
21°F / -6°C 18°F / -8°C 86% 30.18 in
(1022 mb)
SSE 3.5 mph
(SSE 6 kph)
- 10SM
04:55
Overcast
21°F / -6°C 18°F / -8°C 86% 30.18 in
(1022 mb)
S 4.6 mph
(S 7 kph)
- 10SM
04:35
Overcast
19°F / -7°C 16°F / -9°C 86% 30.18 in
(1022 mb)
S 4.6 mph
(S 7 kph)
- 10SM
04:15
Mostly Cloudy
18°F / -8°C 16°F / -9°C 93% 30.18 in
(1022 mb)
Calm - 10SM
03:55
Clear
18°F / -8°C 14°F / -10°C 86% 30.18 in
(1022 mb)
Calm - 10SM
03:35
Clear
18°F / -8°C 14°F / -10°C 86% 30.21 in
(1023 mb)
S 3.5 mph
(S 6 kph)
- 10SM
03:15
Partly Cloudy
18°F / -8°C 14°F / -10°C 86% 30.21 in
(1023 mb)
Calm - 10SM
02:55
Partly Cloudy
16°F / -9°C 14°F / -10°C 93% 30.21 in
(1023 mb)
Calm - 10SM
02:35
Clear
16°F / -9°C 14°F / -10°C 93% 30.21 in
(1023 mb)
Calm - 10SM
02:15
Clear
18°F / -8°C 14°F / -10°C 86% 30.24 in
(1024 mb)
Calm - 10SM
01:55
Partly Cloudy
18°F / -8°C 14°F / -10°C 86% 30.24 in
(1024 mb)
Calm - 10SM
01:35
Overcast
19°F / -7°C 14°F / -10°C 79% 30.24 in
(1024 mb)
S 3.5 mph
(S 6 kph)
- 10SM
01:15
Overcast
21°F / -6°C 16°F / -9°C 80% 30.24 in
(1024 mb)
S 4.6 mph
(S 7 kph)
- 10SM
00:55
Overcast
19°F / -7°C 16°F / -9°C 86% 30.27 in
(1025 mb)
S 4.6 mph
(S 7 kph)
- 10SM
00:35
Overcast
19°F / -7°C 14°F / -10°C 79% 30.27 in
(1025 mb)
S 3.5 mph
(S 6 kph)
- 10SM
00:15
Overcast
18°F / -8°C 14°F / -10°C 86% 30.27 in
(1025 mb)
S 3.5 mph
(S 6 kph)
- 10SM
Time Weather Temperature Dewpoint Humidity Pressure Winds Precip Visibility


Weather for websites

WeatherForYou.com, LLC is not responsible for any damages or problems caused by this service. Current weather conditions are obtained from the closest station including government and personal stations which may have varying degrees of accuracy. Weather forecasts are derived from the NOAA NDFD. Like all things, this site belongs to Jesus Christ... He just trusts me to maintain it. If you have any questions or comments email webmaster@weatherforyou.com

Copyright © 2015, WeatherForYou.com LLC. All rights reserved.